Regional Weather Roundup
Issued by NWS

Home | Current Version | Previous Version | Graphics & Text | Print | Product List | Glossary Off
Versions: 1 2 3 4 5 6 7 8 9 10 11 12 13 14 15 16 17 18 19 20 21 22 23 24 25 26 27 28 29 30 31 32 33 34 35 36 37 38 39 40 41 42 43 44 45 46 47 48 49 50

657
ASUS43 KTOP 292108
RWRKS

WEATHER ROUNDUP FOR KANSAS
NATIONAL WEATHER SERVICE GOODLAND KS
400 PM CDT FRI APR 29 2016

NOTE:  "FAIR" INDICATES FEW OR NO CLOUDS BELOW 12,000 FEET WITH NO
SIGNIFICANT WEATHER AND/OR OBSTRUCTIONS TO VISIBILITY.

KSZ001>006-013>018-027>032-041>047-292200-
NORTHWEST KANSAS

CITY           SKY/WX    TMP DP  RH WIND       PRES   REMARKS
GOODLAND       LGT RAIN  37  36  96 NE21G30   29.83F WCI  26
HAYS           CLOUDY    46  36  66 NE33G40   29.79F
HILL CITY      CLOUDY    44  40  85 NE26G32   29.86F
RUSSELL        CLOUDY    45  43  93 NE24G35   29.79F
$$

KSZ061>065-074>080-084>089-292200-
SOUTHWEST KANSAS

CITY           SKY/WX    TMP DP  RH WIND       PRES   REMARKS
DODGE CITY     CLOUDY    46  44  93 E28G36    29.74F
ELKHART          N/A     44  39  82 NW14        N/A
GARDEN CITY    CLOUDY    45  43  93 E20       29.75F
GREAT BEND     CLOUDY    46  39  76 NE24G31   29.79F
LIBERAL        CLOUDY    48  45  87 E10       29.77R
PRATT          DRIZZLE   42  40  93 NE24G30   29.76F
$$

KSZ066>073-081>083-090>101-292200-
SOUTHEAST KANSAS

CITY           SKY/WX    TMP DP  RH WIND       PRES   REMARKS
CHANUTE        LGT RAIN  61  53  75 NE14G24   29.74F
COFFEYVILLE    CLOUDY    68  57  68 VRB5G22   29.77R
HUTCHINSON     LGT RAIN  47  44  90 NE23G33   29.77F
MEDICINE LODGE   N/A     47  45  93 NE17G28   29.72F
NEWTON         CLOUDY    46  41  81 NE18G30   29.81F
PARSONS        TSTM      62  57  83 E13G37    29.70F VSB 1
WICHITA INTL   CLOUDY    52  48  86 NE23G32   29.77F
WICHITA JABRA  CLOUDY    49 N/A N/A NE20G26   29.79F
WICHITA MCCONL CLOUDY    50  48  93 NE23      29.78F
WINFIELD       LGT RAIN  55  53  93 N21       29.75S FOG
$$

KSZ007>012-019>026-033>040-048>060-102>105-292200-
NORTHEAST KANSAS

CITY           SKY/WX    TMP DP  RH WIND       PRES   REMARKS
CONCORDIA      RAIN      45  43  93 NE15      29.94F FOG
EMPORIA        LGT RAIN  52  50  93 N15       29.86R
LAWRENCE       LGT RAIN  54  49  83 E12       29.91F
MANHATTAN      HVY RAIN  48  44  86 N7        29.96R FOG
MARYSVILLE     RAIN      46  45  93 NE12      29.99F
OLATHE IND     LGT RAIN  56  49  77 NE13G20   29.91F
OLATHE EXE     CLOUDY    54  48  80 NE14      29.91S
SALINA         LGT RAIN  48  46  93 NE22G30   29.85F
TOPEKA BILLARD LGT RAIN  53  49  86 NE13      29.89F
TOPEKA FORBES  LGT RAIN  54  50  86 NE14      29.86F
$$




USA.gov is the U.S. government's official web portal to all federal, state and local government web resources and services.